Airfield Data

Name Airfield Ganderkesee
ICAO Code EDWQ
Coordinates 53.02.15 N / 08.30.22 E
Direction 26 (262°) / 08 (082°)
Height above Ground 96 ft
Measurement 835 m x 22 m
Surface Runway: ASPH
Taxi Way: ASPH
Frequencies Ganderkesee Info / Bearing:  118.625 MHz
(at least 5 min. before approach)Bremen Information: 119.825 MHz
Bremen Approach: 125.650 MHzIn airfield traffic to be on call at all times.
Watch out for Gliders / Ultralights / Parachutes – especially on Saturday / Sunday / Holiday.
Tower Tel +49 4222 45 31
METAR

(EDDW)

EDDW 120950Z 26013KT 9999 -SN BKN006 01/01 Q0999 R88/290095 TEMPO 4500 (No limit or warranty)
TAF

(EDDW)

TAF AMD EDDW 120709Z 1207/1306 29011KT 9999 BKN008 TEMPO 1207/1212 SCT008 BKN040 PROB30 TEMPO 1207/1210 29015G25KT 3500 -SNRA BKN004 BECMG 1210/1213 SCT007 BKN015 BECMG 1213/1216 22010KT (No limit or warranty)
Hours of Operation Today: 09:00 – 16:40 o’clock (automatically calculated time – without limit or warranty)

Summer:
UTC+2 9 A.M. until Sunset + 30 min. (max. 8 P.M.)

Winter:
UTC+1 9 A.M. until Sunset + 30 min. (max. 8 P.M.)

Other times PPR.
1 P.M. – 3 P.M. Start / Land only for / of cross-country flights.

Flight Operation Materials see Prices / Fees
Visual Flight see Visual Flight
Hangars see Hangar Places
Operating Modes VFR and NVFR at night
GAFOR 07
Aircrafts Airplanes up to 5.700 kg MPW
Motor gliders
Gliders (Towing)
Ultralight Planes
Balloons PPR
Airplanes starting at 5.700 kg PPR
Parachutes PPR